Hof Plauen, Germany

11:21 PM CEST on July 26, 2017 (GMT +0200)
Hof-Plauen

Weather History for EDQM - February, 2013

Change the Weather History Date:

Sunday, February 3, 2013

  Actual Average Record
Temperature  
Mean Temperature 28 °F -  
Max Temperature 31 °F 35 °F 55 °F (2002)
Min Temperature 26 °F 26 °F -4 °F (2012)
Degree Days  
Heating Degree Days 36    
Moisture  
Dew Point 26 °F    
Average Humidity 83    
Maximum Humidity 98    
Minimum Humidity 64    
Precipitation  
Precipitation 0.01 in - - ()
Sea Level Pressure  
Sea Level Pressure 29.88 in    
Wind  
Wind Speed 9 mph ()    
Max Wind Speed 24 mph    
Max Gust Speed 34 mph    
Visibility 6.2 miles    
Events Rain , Snow    
Averages and records for this station are not official NWS values.
T = Trace of Precipitation, MM = Missing Value Source: Averaged Metar Reports

Daily Weather History Graph

Daily Weather History Graph

Search for Another Location

Airport or City:

Trip Planner

Search our weather history database for the weather conditions in past years. The results will help you decide how hot, cold, wet, or windy it might be!

Date:

Astronomy

Feb. 03, 2013 Rise Set
Actual Time 7:43 AM CET 5:09 PM CET
Civil Twilight 7:09 AM CET 5:44 PM CET
Nautical Twilight 6:30 AM CET 6:23 PM CET
Astronomical Twilight 5:52 AM CET 7:01 PM CET
Moon 12:52 AM CET (2/3) 10:32 AM CET (2/3)
Length of Visible Light 10h 35m
Length of Day
9h 25m
Waning Gibbous, 51% of the Moon is Illuminated
Feb 3
Waning Gibbous
Feb 3
Last Quarter
Feb 10
New
Feb 17
First Quarter
Feb 25
Full

Hourly Weather History & Observations

Time (CET) Temp. Windchill Dew Point Humidity Pressure Visibility Wind Dir Wind Speed Gust Speed Precip Events Conditions
12:00 AM 27 °F - 24 °F 85% 29.84 in 7 mi West 4.5 mph - - Snow Light Snow
12:20 AM 28.4 °F 19.7 °F 24.8 °F 86% 29.74 in 3.1 mi WSW 9.2 mph - N/A Snow Light Snow
12:50 AM 28.4 °F 21.2 °F 24.8 °F 86% 29.74 in 1.1 mi WSW 6.9 mph - N/A Snow Light Snow
1:00 AM 27 °F - 26 °F 97% 29.85 in 4 mi West 6.7 mph - - Snow Light Snow
1:20 AM 28.4 °F 20.4 °F 24.8 °F 86% 29.74 in 6.2 mi WSW 8.1 mph - N/A Snow Snow Grains
1:50 AM 28.4 °F 21.2 °F 24.8 °F 86% 29.77 in 6.2 mi West 6.9 mph - N/A Snow Light Snow
2:00 AM 28 °F - 27 °F 92% 29.86 in 7 mi WNW 4.5 mph - - Snow Snow
2:20 AM 28.4 °F 22.2 °F 26.6 °F 93% 29.77 in 3.1 mi WSW 5.8 mph - N/A Snow Light Snow
2:50 AM 28.4 °F 19.7 °F 26.6 °F 93% 29.77 in 3.1 mi WSW 9.2 mph - N/A Snow Light Snow
3:00 AM 28 °F - 27 °F 95% 29.88 in 4 mi West 6.7 mph - - Snow Light Snow
3:20 AM 28.4 °F 21.2 °F 26.6 °F 93% 29.77 in 5.0 mi West 6.9 mph - N/A Snow Light Snow
3:50 AM 28.4 °F 20.4 °F 26.6 °F 93% 29.80 in 0.6 mi West 8.1 mph - N/A Snow Light Snow
4:20 AM 30.2 °F 21.3 °F 28.4 °F 93% 29.80 in 6.2 mi NW 10.4 mph - N/A Snow Snow Grains
4:50 AM 30.2 °F 21.9 °F 28.4 °F 93% 29.83 in 6.2 mi NW 9.2 mph - N/A Snow Snow Grains
5:00 AM 30 °F - 29 °F 92% 29.91 in 12 mi NW 6.7 mph - -   Light Freezing Rain
5:20 AM 30.2 °F 22.6 °F 26.6 °F 86% 29.83 in - NW 8.1 mph - N/A Snow Light Snow
5:50 AM 30.2 °F 20.8 °F 28.4 °F 93% 29.83 in 6.2 mi WNW 11.5 mph - N/A   Overcast
6:00 AM 30 °F - 28 °F 89% 29.94 in 12 mi NW 8.9 mph - - Snow Light Snow
6:20 AM 30.2 °F 21.3 °F 26.6 °F 86% 29.86 in 6.2 mi NW 10.4 mph - N/A   Overcast
6:50 AM 30.2 °F 21.9 °F 26.6 °F 86% 29.86 in 6.2 mi NW 9.2 mph - N/A   Overcast
7:00 AM 29 °F - 27 °F 88% 29.96 in 16 mi NW 8.9 mph - -   Partly Cloudy
7:20 AM 28.4 °F 21.2 °F 24.8 °F 86% 29.86 in 6.2 mi NW 6.9 mph - N/A   Overcast
7:50 AM 28.4 °F 19.1 °F 23.0 °F 80% 29.89 in 6.2 mi WNW 10.4 mph - N/A   Overcast
8:00 AM 29 °F - 24 °F 74% 29.99 in 17 mi NW 8.9 mph - -   Mostly Cloudy
8:20 AM 28.4 °F 20.4 °F 23.0 °F 80% 29.89 in 6.2 mi NW 8.1 mph - N/A   Overcast
8:50 AM 30.2 °F 23.4 °F 23.0 °F 75% 29.92 in 6.2 mi NW 6.9 mph - N/A   Mostly Cloudy
9:00 AM 29 °F - 25 °F 78% 30.01 in 22 mi NNW 6.7 mph - - Snow Light Snow
9:20 AM 30.2 °F 22.6 °F 23.0 °F 75% 29.92 in 5.6 mi NW 8.1 mph - N/A Snow Light Snow
9:50 AM 30.2 °F 24.3 °F 24.8 °F 80% 29.92 in 6.2 mi WNW 5.8 mph - N/A Snow Snow Grains
10:20 AM 30.2 °F 22.6 °F 24.8 °F 80% 29.92 in 6.2 mi West 8.1 mph - N/A   Overcast
10:50 AM 30.2 °F 22.6 °F 24.8 °F 80% 29.92 in 6.2 mi West 8.1 mph - N/A   Overcast
11:00 AM 30 °F - 27 °F 82% 30.03 in 9 mi West 6.7 mph - - Snow Snow Grains
11:20 AM 30.2 °F 22.6 °F 24.8 °F 80% 29.95 in 6.2 mi WSW 8.1 mph - N/A   Overcast
11:50 AM 30.2 °F 22.6 °F 24.8 °F 80% 29.95 in 6.2 mi WSW 8.1 mph - N/A   Mostly Cloudy
12:00 PM 31 °F - 25 °F 70% 30.03 in 19 mi WNW 4.5 mph - - Rain Light Freezing Rain
12:50 PM 30.2 °F 21.3 °F 24.8 °F 80% 29.92 in 6.2 mi West 10.4 mph - N/A Snow Light Snow
1:00 PM 30 °F - 26 °F 78% 30.03 in 3 mi WNW 6.7 mph - - Snow Light Snow
1:20 PM 30.2 °F 21.9 °F 23.0 °F 75% 29.95 in 6.2 mi West 9.2 mph - N/A   Overcast
1:50 PM 30.2 °F 20.8 °F 23.0 °F 75% 29.95 in 6.2 mi West 11.5 mph - N/A   Overcast
2:00 PM 31 °F - 25 °F 69% 30.03 in 12 mi West 8.9 mph - - Snow Snow Grains
2:20 PM 30.2 °F 19.8 °F 21.2 °F 69% 29.92 in 6.2 mi West 13.8 mph - N/A Snow Light Snow
3:00 PM 31 °F - 23 °F 64% 30.01 in 16 mi West 8.9 mph - - Snow Light Snow
3:20 PM 30.2 °F 21.3 °F 21.2 °F 69% 29.92 in 6.2 mi West 10.4 mph - N/A   Mostly Cloudy
3:50 PM 30.2 °F 20.8 °F 21.2 °F 69% 29.92 in 6.2 mi WSW 11.5 mph - N/A   Scattered Clouds
4:20 PM 32.0 °F 21.6 °F 21.2 °F 64% 29.92 in 6.2 mi WSW 15.0 mph - N/A Rain Light Freezing Rain
4:50 PM 30.2 °F 20.2 °F 23.0 °F 75% 29.89 in 6.2 mi WSW 12.7 mph - N/A Snow Light Snow
5:00 PM 30 °F - 25 °F 73% 29.99 in 12 mi WSW 8.9 mph - -   Ice Crystals
5:20 PM 30.2 °F 20.2 °F 23.0 °F 75% 29.89 in 6.2 mi SW 12.7 mph - N/A Snow Snow Grains
5:50 PM 30.2 °F 19.8 °F 24.8 °F 80% 29.89 in 6.2 mi SW 13.8 mph - N/A   Overcast
6:00 PM 31 °F - 26 °F 75% 29.97 in 19 mi WSW 11.2 mph - - Snow Light Snow
6:20 PM 30.2 °F 19.3 °F 24.8 °F 80% 29.86 in 6.2 mi SW 15.0 mph 26.5 mph N/A   Overcast
6:50 PM 30.2 °F 18.5 °F 24.8 °F 80% 29.86 in 6.2 mi SW 17.3 mph 28.8 mph N/A Snow Snow Grains
7:00 PM 31 °F - 28 °F 81% 29.94 in 7 mi WSW 13.4 mph - - Snow Light Snow
7:20 PM 30.2 °F 18.1 °F 26.6 °F 86% 29.86 in - SW 18.4 mph - N/A Snow Light Snow
7:50 PM 30.2 °F 19.8 °F 26.6 °F 86% 29.83 in 1.2 mi SSW 13.8 mph - N/A Snow Light Snow
8:00 PM 30 °F - 29 °F 93% 29.93 in 1 mi SW 11.2 mph - - Snow Light Snow
8:20 PM 30.2 °F 18.5 °F 28.4 °F 93% 29.83 in 1.1 mi SW 17.3 mph - N/A Snow Light Snow
8:50 PM 30.2 °F 17.4 °F 28.4 °F 93% 29.80 in 0.7 mi SW 20.7 mph - N/A Snow Light Snow
9:00 PM 30 °F - 30 °F 98% 29.89 in 1 mi WSW 17.9 mph - - Snow Snow
9:20 PM 30.2 °F 17.1 °F 28.4 °F 93% 29.77 in 1.2 mi SW 21.9 mph 33.4 mph N/A Snow Light Snow
9:50 PM 30.2 °F 16.5 °F 26.6 °F 86% 29.77 in 1.1 mi SW 24.2 mph - N/A Snow Light Snow
10:20 PM 30.2 °F 16.8 °F 26.6 °F 86% 29.74 in 1.6 mi SW 23.0 mph 34.5 mph N/A Snow Light Snow
10:50 PM 30.2 °F 17.4 °F 26.6 °F 86% 29.74 in 1.7 mi SW 20.7 mph 34.5 mph N/A Snow Light Snow
11:00 PM 29 °F - 29 °F 98% 29.83 in 1 mi WSW 15.7 mph - - Snow Light Snow
11:20 PM 30.2 °F 17.8 °F 26.6 °F 86% 29.74 in - SW 19.6 mph - N/A Snow Light Snow
11:50 PM 30.2 °F 17.4 °F 26.6 °F 86% 29.74 in 1.1 mi WSW 20.7 mph - N/A Snow Light Snow